Estación de Los Angeles
Ultimos registro cada 15 minutos 62
| N° | Estación | Fecha / Hora | Temperatura | Humedad | Lluvia | Velocidad | Dirección | Radiación | Presion |
| 62 | Los Angeles | 03-05-2026 15:15 | 9,6 | 96,2 | 0,2 | 0,3 | 59 | 50,6 | 1006,9 |
| 61 | Los Angeles | 03-05-2026 15:00 | 9,4 | 95,9 | 0 | 0,7 | 44 | 46,9 | 1006,8 |
| 60 | Los Angeles | 03-05-2026 14:45 | 9,6 | 95,5 | 0 | 0,3 | 22 | 49,4 | 1006,8 |
| 59 | Los Angeles | 03-05-2026 14:30 | 9,6 | 95,2 | 0,2 | 0,7 | 25 | 74,4 | 1006,8 |
| 58 | Los Angeles | 03-05-2026 14:15 | 9,5 | 94,2 | 0,6 | 0,3 | 17 | 113,1 | 1007,1 |
| 57 | Los Angeles | 03-05-2026 14:00 | 9,3 | 93,3 | 0,2 | 0,3 | 4 | 81,9 | 1007,5 |
| 56 | Los Angeles | 03-05-2026 13:45 | 9,8 | 93,5 | 0 | 0 | 3 | 64,4 | 1007,5 |
| 55 | Los Angeles | 03-05-2026 13:30 | 9,7 | 93,2 | 0,8 | 0,3 | 29 | 95,6 | 1007,4 |
| 54 | Los Angeles | 03-05-2026 13:15 | 9,7 | 92,7 | 0,6 | 0,3 | 170 | 76,9 | 1007,3 |
| 53 | Los Angeles | 03-05-2026 13:00 | 10,3 | 91,7 | 0 | 0 | 32 | 70,6 | 1007,5 |
| 52 | Los Angeles | 03-05-2026 12:45 | 10,3 | 90,1 | 0 | 0 | 29 | 44,4 | 1007,4 |
| 51 | Los Angeles | 03-05-2026 12:30 | 10,2 | 89,9 | 0 | 0,3 | 8 | 54,4 | 1007,4 |
| 50 | Los Angeles | 03-05-2026 12:15 | 10,1 | 90 | 0 | 0,3 | 344 | 50,6 | 1007,5 |
| 49 | Los Angeles | 03-05-2026 12:00 | 9,7 | 89,7 | 0 | 0,3 | 298 | 35,6 | 1007,5 |
| 48 | Los Angeles | 03-05-2026 11:45 | 9,9 | 89,6 | 0 | 0,3 | 0 | 46,9 | 1007,7 |
| 47 | Los Angeles | 03-05-2026 11:30 | 9,9 | 91,5 | 0 | 0,3 | 341 | 141,9 | 1007,1 |
| 46 | Los Angeles | 03-05-2026 11:15 | 9,3 | 92,6 | 0,2 | 0,3 | 354 | 131,9 | 1007,3 |
| 45 | Los Angeles | 03-05-2026 11:00 | 8,9 | 92,1 | 0,2 | 0,7 | 10 | 134,4 | 1006,9 |
| 44 | Los Angeles | 03-05-2026 10:45 | 8,7 | 90,2 | 0 | 0,7 | 15 | 111,9 | 1007,2 |
| 43 | Los Angeles | 03-05-2026 10:30 | 9,1 | 87,4 | 0 | 0,3 | 319 | 70,6 | 1007,4 |
| 42 | Los Angeles | 03-05-2026 10:15 | 8,6 | 88,5 | 0 | 0,3 | 11 | 95,6 | 1007,5 |
| 41 | Los Angeles | 03-05-2026 10:00 | 8,5 | 88,6 | 0 | 0,7 | 347 | 69,4 | 1007,2 |
| 40 | Los Angeles | 03-05-2026 09:45 | 8,1 | 92 | 0 | 0,3 | 341 | 100,6 | 1007,2 |
| 39 | Los Angeles | 03-05-2026 09:30 | 7,4 | 94,6 | 0 | 0,3 | 357 | 113,1 | 1007,2 |
| 38 | Los Angeles | 03-05-2026 09:15 | 7 | 96,4 | 0 | 0,7 | 338 | 81,9 | 1006,9 |
| 37 | Los Angeles | 03-05-2026 09:00 | 6,5 | 97,3 | 0 | 0,3 | 358 | 79,4 | 1006,9 |
| 36 | Los Angeles | 03-05-2026 08:45 | 6,1 | 97,6 | 0 | 0,3 | 338 | 39,4 | 1006,9 |
| 35 | Los Angeles | 03-05-2026 08:30 | 5,7 | 97,7 | 0 | 0 | 345 | 30,6 | 1006,7 |
| 34 | Los Angeles | 03-05-2026 08:15 | 5,4 | 97,8 | 0 | 0 | 331 | 20,6 | 1006,9 |
| 33 | Los Angeles | 03-05-2026 08:00 | 4,9 | 97,9 | 0 | 0,3 | 312 | 14,4 | 1006,9 |
| 32 | Los Angeles | 03-05-2026 07:45 | 4,7 | 97,8 | 0 | 0 | 303 | 8,1 | 1006,7 |
| 31 | Los Angeles | 03-05-2026 07:30 | 4,3 | 97,8 | 0 | 0 | 278 | 0,6 | 1006,6 |
| 30 | Los Angeles | 03-05-2026 07:15 | 4,3 | 97,7 | 0 | 0 | 278 | 0,6 | 1006,4 |
| 29 | Los Angeles | 03-05-2026 07:00 | 4,3 | 97,8 | 0 | 0 | 278 | 0,6 | 1006,6 |
| 28 | Los Angeles | 03-05-2026 06:45 | 4,3 | 97,7 | 0 | 0 | 278 | 0,6 | 1006,9 |
| 27 | Los Angeles | 03-05-2026 06:30 | 4,3 | 97,7 | 0 | 0 | 278 | 0,6 | 1006,9 |
| 26 | Los Angeles | 03-05-2026 06:15 | 4,2 | 97,7 | 0 | 0 | 278 | 0,6 | 1006,8 |
| 25 | Los Angeles | 03-05-2026 06:00 | 3,9 | 97,6 | 0 | 0 | 278 | 0,6 | 1006,4 |
| 24 | Los Angeles | 03-05-2026 05:45 | 3,9 | 97,6 | 0 | 0 | 263 | 0,6 | 1006,5 |
| 23 | Los Angeles | 03-05-2026 05:30 | 3,2 | 97,6 | 0 | 0 | 226 | 0,6 | 1006,1 |
| 22 | Los Angeles | 03-05-2026 05:15 | 2,6 | 97,4 | 0 | 0 | 223 | 0,6 | 1006,1 |
| 21 | Los Angeles | 03-05-2026 05:00 | 3,1 | 97,4 | 0 | 0 | 191 | 0,6 | 1006,2 |
| 20 | Los Angeles | 03-05-2026 04:45 | 3 | 97,4 | 0 | 0 | 191 | 0,6 | 1006,1 |
| 19 | Los Angeles | 03-05-2026 04:30 | 2,9 | 97,2 | 0 | 0 | 191 | 0,6 | 1006,6 |
| 18 | Los Angeles | 03-05-2026 04:15 | 2,6 | 97,3 | 0 | 0 | 191 | 0,6 | 1006,7 |
| 17 | Los Angeles | 03-05-2026 04:00 | 2,2 | 97,1 | 0 | 0 | 191 | 0,6 | 1006,6 |
| 16 | Los Angeles | 03-05-2026 03:45 | 0,9 | 96,9 | 0 | 0 | 191 | 0,6 | 1006,6 |
| 15 | Los Angeles | 03-05-2026 03:30 | 1 | 96,8 | 0 | 0 | 191 | 0,6 | 1006,6 |
| 14 | Los Angeles | 03-05-2026 03:15 | 1,9 | 96,7 | 0 | 0 | 191 | 0,6 | 1006,7 |
| 13 | Los Angeles | 03-05-2026 03:00 | 2,9 | 96,9 | 0 | 0 | 191 | 0,6 | 1006,9 |
| 12 | Los Angeles | 03-05-2026 02:45 | 2,7 | 96,9 | 0 | 0 | 191 | 0,6 | 1007 |
| 11 | Los Angeles | 03-05-2026 02:30 | 2 | 96,8 | 0 | 0 | 191 | 0,6 | 1006,6 |
| 10 | Los Angeles | 03-05-2026 02:15 | 2,3 | 96,5 | 0 | 0 | 191 | 0,6 | 1006,7 |
| 9 | Los Angeles | 03-05-2026 02:00 | 2,5 | 96,4 | 0 | 0 | 191 | 0,6 | 1006,8 |
| 8 | Los Angeles | 03-05-2026 01:45 | 3,1 | 96,3 | 0 | 0 | 191 | 0,6 | 1007,3 |
| 7 | Los Angeles | 03-05-2026 01:30 | 3,5 | 96,3 | 0 | 0 | 191 | 0,6 | 1007,1 |
| 6 | Los Angeles | 03-05-2026 01:15 | 3,9 | 96,2 | 0 | 0 | 191 | 0,6 | 1007 |
| 5 | Los Angeles | 03-05-2026 01:00 | 4,3 | 96,2 | 0 | 0 | 191 | 0,6 | 1007,1 |
| 4 | Los Angeles | 03-05-2026 00:45 | 3,9 | 96,1 | 0 | 0 | 191 | 0,6 | 1007,2 |
| 3 | Los Angeles | 03-05-2026 00:30 | 4,2 | 96 | 0 | 0 | 191 | 0,6 | 1007,4 |
| 2 | Los Angeles | 03-05-2026 00:15 | 3,6 | 95,7 | 0 | 0 | 191 | 0,6 | 1007,5 |
| 1 | Los Angeles | 03-05-2026 00:00 | 3,5 | 95,8 | 0 | 0 | 191 | 0,6 | 1007,1 |